Cleveland Burke, OH

12:11 PM EDT on October 22, 2017 (GMT -0400)
Burke Lakefront

Weather History for KBKL - January, 2004

Change the Weather History Date:

Wednesday, January 14, 2004

  Actual Average Record
Temperature  
Mean Temperature 24 °F -  
Max Temperature 28 °F 31 °F 50 °F (2006)
Min Temperature 19 °F 20 °F 7 °F (2015)
Degree Days  
Heating Degree Days 42    
Moisture  
Dew Point 20 °F    
Average Humidity 85    
Maximum Humidity 100    
Minimum Humidity 69    
Precipitation  
Precipitation 0.14 in - - ()
Sea Level Pressure  
Sea Level Pressure 29.83 in    
Wind  
Wind Speed 8 mph (East)    
Max Wind Speed 20 mph    
Max Gust Speed -    
Visibility 4 miles    
Events Fog , Snow    
Averages and records for this station are not official NWS values.
T = Trace of Precipitation, MM = Missing Value Source: NWS Daily Summary

Daily Weather History Graph

Daily Weather History Graph

Search for Another Location

Airport or City:

Trip Planner

Search our weather history database for the weather conditions in past years. The results will help you decide how hot, cold, wet, or windy it might be!

Date:

Astronomy

Jan. 14, 2004 Rise Set
Actual Time 7:51 AM EST 5:20 PM EST
Civil Twilight 7:20 AM EST 5:50 PM EST
Nautical Twilight 6:46 AM EST 6:24 PM EST
Astronomical Twilight 6:13 AM EST 6:58 PM EST
Moon No Moon Rise 11:43 AM EST (1/14)
Length of Visible Light 10h 29m
Length of Day
9h 28m
Waning Gibbous, 55% of the Moon is Illuminated
Jan 14
Waning Gibbous
Jan 14
Last Quarter
Jan 21
New
Jan 29
First Quarter
Feb 6
Full

Hourly Weather History & Observations

Time (EST) Temp. Windchill Dew Point Humidity Pressure Visibility Wind Dir Wind Speed Gust Speed Precip Events Conditions
12:53 AM 21.0 °F 12.4 °F 14.0 °F 74% 30.27 in 5.0 mi NNE 6.9 mph - 0.00 in Snow Light Snow
1:03 AM 21.2 °F 12.6 °F 14.0 °F 74% 30.24 in 6.0 mi NE 6.9 mph - 0.00 in Snow Light Snow
1:53 AM 21.0 °F 13.4 °F 15.1 °F 78% 30.25 in 4.0 mi ENE 5.8 mph - 0.00 in Snow Light Snow
2:09 AM 21.2 °F 14.9 °F 15.8 °F 80% 30.22 in 4.0 mi ESE 4.6 mph - 0.00 in Snow Light Snow
2:53 AM 21.0 °F 14.6 °F 15.1 °F 78% 30.24 in 5.0 mi East 4.6 mph - 0.00 in Snow Light Snow
3:53 AM 19.9 °F 14.9 °F 14.0 °F 78% 30.21 in 10.0 mi SE 3.5 mph - 0.00 in   Overcast
4:04 AM 19.4 °F 11.5 °F 15.8 °F 86% 30.17 in 10.0 mi ESE 5.8 mph - N/A   Overcast
4:53 AM 21.0 °F - 14.0 °F 74% 30.17 in 5.0 mi Calm Calm - 0.00 in Snow Light Snow
5:53 AM 19.9 °F 14.9 °F 16.0 °F 85% 30.14 in 5.0 mi Variable 3.5 mph - 0.00 in Snow Light Snow
6:53 AM 19.9 °F 11.1 °F 15.1 °F 81% 30.12 in 10.0 mi SE 6.9 mph - 0.00 in   Overcast
7:07 AM 19.4 °F 8.6 °F 15.8 °F 86% 30.09 in 10.0 mi SSE 9.2 mph - N/A   Overcast
7:40 AM 21.2 °F 11.7 °F 15.8 °F 80% 30.08 in 10.0 mi SE 8.1 mph - N/A   Overcast
7:53 AM 19.9 °F 9.3 °F 14.0 °F 78% 30.10 in 10.0 mi SSE 9.2 mph - N/A   Overcast
8:13 AM 21.2 °F 12.6 °F 15.8 °F 80% 30.07 in 10.0 mi SSE 6.9 mph - N/A   Overcast
8:53 AM 21.0 °F 9.3 °F 15.1 °F 78% 30.08 in 10.0 mi SSE 11.5 mph - N/A   Overcast
9:16 AM 21.2 °F 10.9 °F 15.8 °F 80% 30.04 in 10.0 mi SSE 9.2 mph - N/A   Overcast
9:53 AM 21.9 °F 10.4 °F 16.0 °F 78% 30.04 in 10.0 mi South 11.5 mph - N/A   Overcast
10:53 AM 23.0 °F 13.1 °F 17.1 °F 78% 30.01 in 10.0 mi SSE 9.2 mph - N/A   Overcast
11:53 AM 26.1 °F 16.8 °F 17.1 °F 69% 29.96 in 10.0 mi South 9.2 mph - N/A   Overcast
12:42 PM 26.6 °F 18.2 °F 17.6 °F 69% 29.86 in 2.5 mi SSE 8.1 mph - 0.00 in Snow Light Snow
12:53 PM 26.1 °F 16.8 °F 18.0 °F 71% 29.87 in 2.5 mi SSE 9.2 mph - 0.00 in Snow Light Snow
1:01 PM 26.6 °F 16.8 °F 19.4 °F 74% 29.83 in 1.0 mi SSE 10.4 mph - 0.00 in Snow Light Snow
1:14 PM 26.6 °F 16.8 °F 19.4 °F 74% 29.81 in 1.5 mi South 10.4 mph - 0.00 in Snow Light Snow
1:22 PM 24.8 °F 14.0 °F 21.2 °F 86% 29.80 in 1.0 mi SSE 11.5 mph - 0.00 in Snow Light Snow
1:32 PM 26.6 °F 15.7 °F 21.2 °F 80% 29.79 in 1.8 mi SSE 12.7 mph - 0.00 in Snow Light Snow
1:42 PM 24.8 °F 14.0 °F 21.2 °F 86% 29.77 in 1.0 mi SSE 11.5 mph - 0.00 in Snow Light Snow
1:53 PM 25.0 °F 14.2 °F 21.0 °F 85% 29.78 in 1.0 mi SSE 11.5 mph - 0.00 in Snow Light Snow
4:05 PM 26.6 °F 19.1 °F 21.2 °F 80% 29.66 in 0.8 mi SE 6.9 mph - 0.00 in Snow Light Snow
4:36 PM 26.6 °F 22.6 °F 24.8 °F 93% 29.66 in 0.2 mi ENE 3.5 mph - 0.03 in Fog , Snow Snow
4:43 PM 26.6 °F 22.6 °F 24.8 °F 93% 29.66 in 0.2 mi ENE 3.5 mph - 0.04 in Fog , Snow Heavy Snow
4:53 PM 27.0 °F 23.0 °F 25.0 °F 92% 29.68 in 0.2 mi East 3.5 mph - 0.06 in Fog , Snow Heavy Snow
5:26 PM 26.6 °F 21.2 °F 24.8 °F 93% 29.64 in 0.5 mi ESE 4.6 mph - 0.03 in Fog , Snow Light Snow
5:34 PM 26.6 °F 22.6 °F 24.8 °F 93% 29.63 in 1.5 mi East 3.5 mph - 0.03 in Snow Light Snow
6:05 PM 26.6 °F 21.2 °F 24.8 °F 93% 29.62 in 1.5 mi ESE 4.6 mph - 0.00 in Snow Light Snow
6:22 PM 26.6 °F 19.1 °F 24.8 °F 93% 29.61 in 1.0 mi ESE 6.9 mph - 0.01 in Snow Light Snow
6:28 PM 26.6 °F 20.0 °F 24.8 °F 93% 29.61 in 0.8 mi SE 5.8 mph - 0.01 in Snow Light Snow
6:32 PM 26.6 °F 20.0 °F 24.8 °F 93% 29.60 in 1.0 mi Variable 5.8 mph - 0.02 in Snow Light Snow
6:53 PM 28.0 °F 22.8 °F 25.0 °F 88% 29.62 in 1.0 mi East 4.6 mph - 0.04 in Snow Light Snow
7:00 PM 28.4 °F 22.2 °F 26.6 °F 93% 29.59 in 0.8 mi East 5.8 mph - 0.00 in Snow Light Snow
7:24 PM 28.4 °F 24.6 °F 26.6 °F 93% 29.59 in 0.8 mi East 3.5 mph - 0.01 in Snow Light Snow
7:53 PM 28.0 °F 20.8 °F 27.0 °F 96% 29.61 in 1.0 mi NE 6.9 mph - 0.03 in Snow Light Snow
8:00 PM 28.4 °F 19.1 °F 26.6 °F 93% 29.59 in 0.8 mi NNE 10.4 mph - 0.01 in Snow Light Snow
8:10 PM 26.6 °F 15.7 °F 26.6 °F 100% 29.59 in 1.0 mi NE 12.7 mph - 0.01 in Snow Light Snow
8:20 PM 26.6 °F 15.2 °F 24.8 °F 93% 29.59 in 0.8 mi NE 13.8 mph - 0.01 in Snow Light Snow
8:28 PM 26.6 °F 15.2 °F 24.8 °F 93% 29.59 in 1.0 mi NE 13.8 mph - 0.01 in Snow Light Snow
8:53 PM 25.0 °F 12.2 °F 23.0 °F 92% 29.62 in 1.8 mi NE 16.1 mph - 0.01 in Snow Light Snow
9:10 PM 24.8 °F 12.4 °F 23.0 °F 93% 29.61 in 3.0 mi NE 15.0 mph - 0.00 in Snow Light Snow
9:15 PM 24.8 °F 12.4 °F 21.2 °F 86% 29.61 in 3.0 mi NE 15.0 mph - 0.00 in Snow Light Snow
9:23 PM 24.8 °F 11.5 °F 21.2 °F 86% 29.62 in 2.5 mi NE 17.3 mph - 0.00 in Snow Light Snow
9:33 PM 23.0 °F 10.6 °F 21.2 °F 93% 29.62 in 4.0 mi NE 13.8 mph - 0.00 in Snow Light Snow
9:53 PM 23.0 °F 10.6 °F 21.0 °F 92% 29.67 in 6.0 mi NE 13.8 mph - 0.00 in   Overcast
10:12 PM 21.2 °F 10.1 °F 19.4 °F 93% 29.66 in 9.0 mi NE 10.4 mph - N/A   Scattered Clouds
10:40 PM 24.8 °F 13.4 °F 21.2 °F 86% 29.69 in 10.0 mi NE 12.7 mph - N/A   Mostly Cloudy
10:53 PM 25.0 °F 14.2 °F 21.9 °F 88% 29.73 in 10.0 mi NE 11.5 mph - N/A   Overcast
11:53 PM 27.0 °F 13.5 °F 23.0 °F 85% 29.77 in 10.0 mi NNE 19.6 mph - N/A   Overcast